Location: Dillon
(41.1766°N, 107.0923°W)
Time: 14:05:50
(UTC+00:00)

RS-44 - Pass Details

Date: 30 June 2022
Orbit: 1175 x 1510 km, 82.5° (Epoch: 07 August)

Event Time Altitude Azimuth Distance (km) Brightness Sun altitude
Rises 06:03:30 0° 254° (WSW) 4,380 ? -23.7°
Reaches altitude 10° 06:08:41 10° 282° (WNW) 3,492 ? -24.0°
Maximum altitude 06:11:52 12° 305° (NW) 3,350 ? -24.2°
Drops below altitude 10° 06:15:08 10° 328° (NNW) 3,583 ? -24.3°
Sets 06:20:42 0° 356° (N) 4,622 ? -24.6°
